Time,TemperatureF,DewpointF,PressureIn,WindDirection,WindDirectionDegrees,WindSpeedMPH,WindSpeedGustMPH,Humidity,HourlyPrecipIn,Conditions,Clouds,dailyrainin,SoftwareType,DateUTC
2013-07-16 00:01:00,65.0,59.0,29.68,NNE,16,0.0,-999.0,82,-99.99,,,-99.99,,2013-07-16 06:01:00,
2013-07-16 00:11:00,65.0,59.0,29.68,NNE,16,0.0,-999.0,82,-99.99,,,-99.99,,2013-07-16 06:11:00,
2013-07-16 00:22:00,64.0,58.0,29.68,NNE,16,1.0,-999.0,82,-99.99,,,-99.99,,2013-07-16 06:22:00,
2013-07-16 00:31:00,64.0,58.0,29.68,NNE,16,1.0,-999.0,80,-99.99,,,-99.99,,2013-07-16 06:31:00,
2013-07-16 00:43:00,64.0,58.0,29.68,NNE,16,1.0,-999.0,80,-99.99,,,-99.99,,2013-07-16 06:43:00,
2013-07-16 00:52:00,64.0,58.0,29.67,NNE,16,0.0,-999.0,80,-99.99,,,-99.99,,2013-07-16 06:52:00,
2013-07-16 01:01:00,64.0,58.0,29.66,NNE,16,0.0,-999.0,80,-99.99,,,-99.99,,2013-07-16 07:01:00,
2013-07-16 01:11:00,64.0,58.0,29.66,NNE,16,0.0,-999.0,80,-99.99,,,-99.99,,2013-07-16 07:11:00,
2013-07-16 01:22:00,64.0,58.0,29.66,NNE,20,1.0,-999.0,80,-99.99,,,-99.99,,2013-07-16 07:22:00,
2013-07-16 01:32:00,64.0,58.0,29.66,NNE,29,2.0,-999.0,80,-99.99,,,-99.99,,2013-07-16 07:32:00,
2013-07-16 01:43:00,64.0,58.0,29.66,NNE,29,2.0,-999.0,80,-99.99,,,-99.99,,2013-07-16 07:43:00,
2013-07-16 01:52:00,63.0,58.0,29.66,NE,56,2.0,-999.0,83,-99.99,,,-99.99,,2013-07-16 07:52:00,
2013-07-16 02:01:00,63.0,58.0,29.66,NE,56,2.0,-999.0,83,-99.99,,,-99.99,,2013-07-16 08:01:00,
2013-07-16 02:11:00,62.0,57.0,29.67,NNE,28,1.0,-999.0,85,-99.99,,,-99.99,,2013-07-16 08:11:00,
2013-07-16 02:22:00,62.0,58.0,29.67,NNE,28,2.0,-999.0,87,-99.99,,,-99.99,,2013-07-16 08:22:00,
2013-07-16 02:32:00,62.0,58.0,29.67,NNE,28,2.0,-999.0,87,-99.99,,,-99.99,,2013-07-16 08:32:00,
2013-07-16 02:43:00,62.0,58.0,29.67,NNE,30,2.0,-999.0,88,-99.99,,,-99.99,,2013-07-16 08:43:00,
2013-07-16 02:52:00,62.0,59.0,29.74,NNE,29,1.0,-999.0,89,-99.99,,,-99.99,,2013-07-16 08:52:00,
2013-07-16 03:01:00,62.0,59.0,29.74,NNE,29,1.0,-999.0,89,-99.99,,,-99.99,,2013-07-16 09:01:00,
2013-07-16 03:12:00,62.0,59.0,29.74,NNE,29,2.0,-999.0,90,-99.99,,,-99.99,,2013-07-16 09:12:00,
2013-07-16 03:22:00,61.0,58.0,29.74,NNE,18,4.0,-999.0,91,-99.99,,,-99.99,,2013-07-16 09:22:00,
2013-07-16 03:32:00,61.0,58.0,29.74,NNE,18,4.0,-999.0,91,-99.99,,,-99.99,,2013-07-16 09:32:00,
2013-07-16 03:42:00,61.0,58.0,29.73,NNE,18,1.0,-999.0,91,-99.99,,,-99.99,,2013-07-16 09:42:00,
2013-07-16 03:52:00,61.0,58.0,29.73,NNE,18,1.0,-999.0,91,-99.99,,,-99.99,,2013-07-16 09:52:00,
2013-07-16 04:01:00,61.0,58.0,29.73,NNE,18,1.0,-999.0,91,-99.99,,,-99.99,,2013-07-16 10:01:00,
2013-07-16 04:11:00,60.0,57.0,29.72,NNE,18,2.0,-999.0,91,-99.99,,,-99.99,,2013-07-16 10:11:00,
2013-07-16 04:22:00,60.0,58.0,29.73,NNE,18,1.0,-999.0,92,-99.99,,,-99.99,,2013-07-16 10:22:00,
2013-07-16 04:31:00,60.0,58.0,29.73,NNE,18,1.0,-999.0,92,-99.99,,,-99.99,,2013-07-16 10:31:00,
2013-07-16 04:43:00,60.0,58.0,29.72,NNE,18,1.0,-999.0,92,-99.99,,,-99.99,,2013-07-16 10:43:00,
2013-07-16 04:52:00,60.0,58.0,29.74,NNE,18,0.0,-999.0,92,-99.99,,,-99.99,,2013-07-16 10:52:00,
2013-07-16 05:01:00,60.0,58.0,29.74,NNE,18,0.0,-999.0,92,-99.99,,,-99.99,,2013-07-16 11:01:00,
2013-07-16 05:11:00,60.0,58.0,29.73,NNE,18,3.0,-999.0,92,-99.99,,,-99.99,,2013-07-16 11:11:00,
2013-07-16 05:22:00,60.0,58.0,29.74,NNE,18,1.0,-999.0,92,-99.99,,,-99.99,,2013-07-16 11:22:00,
2013-07-16 05:32:00,60.0,58.0,29.74,NNE,18,1.0,-999.0,92,-99.99,,,-99.99,,2013-07-16 11:32:00,
2013-07-16 05:42:00,60.0,57.0,29.74,NNE,18,2.0,-999.0,90,-99.99,,,-99.99,,2013-07-16 11:42:00,
2013-07-16 05:52:00,60.0,57.0,29.73,NNE,18,0.0,-999.0,89,-99.99,,,-99.99,,2013-07-16 11:52:00,
2013-07-16 06:01:00,60.0,57.0,29.73,NNE,18,0.0,-999.0,89,-99.99,,,-99.99,,2013-07-16 12:01:00,
2013-07-16 06:11:00,60.0,56.0,29.74,NNE,18,1.0,-999.0,87,-99.99,,,-99.99,,2013-07-16 12:11:00,
2013-07-16 06:22:00,60.0,55.0,29.74,NNE,18,2.0,-999.0,83,-99.99,,,-99.99,,2013-07-16 12:22:00,
2013-07-16 06:32:00,60.0,55.0,29.74,NNE,18,2.0,-999.0,83,-99.99,,,-99.99,,2013-07-16 12:32:00,
2013-07-16 06:43:00,61.0,55.0,29.74,NNE,18,1.0,-999.0,80,-99.99,,,-99.99,,2013-07-16 12:43:00,
2013-07-16 06:53:00,62.0,56.0,29.76,NNE,18,1.0,-999.0,82,-99.99,,,-99.99,,2013-07-16 12:53:00,
2013-07-16 07:01:00,62.0,56.0,29.76,NNE,18,1.0,-999.0,82,-99.99,,,-99.99,,2013-07-16 13:01:00,
2013-07-16 07:11:00,62.0,57.0,29.77,NNE,18,1.0,-999.0,83,-99.99,,,-99.99,,2013-07-16 13:11:00,
2013-07-16 07:21:00,62.0,57.0,29.78,NNE,18,0.0,-999.0,84,-99.99,,,-99.99,,2013-07-16 13:21:00,
2013-07-16 07:32:00,62.0,57.0,29.78,NNE,18,0.0,-999.0,84,-99.99,,,-99.99,,2013-07-16 13:32:00,
2013-07-16 07:42:00,62.0,57.0,29.78,NNE,29,3.0,-999.0,83,-99.99,,,-99.99,,2013-07-16 13:42:00,
2013-07-16 07:52:00,62.0,56.0,29.78,NNE,29,2.0,-999.0,80,-99.99,,,-99.99,,2013-07-16 13:52:00,
2013-07-16 08:01:00,62.0,56.0,29.78,NNE,29,2.0,-999.0,80,-99.99,,,-99.99,,2013-07-16 14:01:00,
2013-07-16 08:11:00,63.0,56.0,29.78,NNE,29,1.0,-999.0,78,-99.99,,,-99.99,,2013-07-16 14:11:00,
2013-07-16 08:21:00,63.0,55.0,29.79,NNE,29,1.0,-999.0,75,-99.99,,,-99.99,,2013-07-16 14:21:00,
2013-07-16 08:32:00,63.0,55.0,29.79,NNE,29,1.0,-999.0,75,-99.99,,,-99.99,,2013-07-16 14:32:00,
2013-07-16 08:42:00,64.0,55.0,29.80,NNE,29,0.0,-999.0,73,-99.99,,,-99.99,,2013-07-16 14:42:00,
2013-07-16 08:52:00,65.0,55.0,29.80,NNE,29,1.0,-999.0,71,-99.99,,,-99.99,,2013-07-16 14:52:00,
2013-07-16 09:01:00,65.0,55.0,29.80,NNE,29,1.0,-999.0,71,-99.99,,,-99.99,,2013-07-16 15:01:00,
2013-07-16 09:11:00,65.0,55.0,29.79,NNE,29,1.0,-999.0,69,-99.99,,,-99.99,,2013-07-16 15:11:00,
2013-07-16 09:21:00,66.0,54.0,29.80,East,83,1.0,-999.0,65,-99.99,,,-99.99,,2013-07-16 15:21:00,
2013-07-16 09:32:00,66.0,54.0,29.80,East,83,1.0,-999.0,65,-99.99,,,-99.99,,2013-07-16 15:32:00,
2013-07-16 09:43:00,66.0,53.0,29.80,ESE,107,3.0,-999.0,64,-99.99,,,-99.99,,2013-07-16 15:43:00,
2013-07-16 09:53:00,67.0,53.0,29.80,ESE,108,4.0,-999.0,61,-99.99,,,-99.99,,2013-07-16 15:53:00,
2013-07-16 10:01:00,67.0,53.0,29.80,ESE,108,4.0,-999.0,61,-99.99,,,-99.99,,2013-07-16 16:01:00,
2013-07-16 10:11:00,68.0,53.0,29.79,ENE,77,3.0,-999.0,59,-99.99,,,-99.99,,2013-07-16 16:11:00,
2013-07-16 10:21:00,68.0,53.0,29.81,ENE,60,4.0,-999.0,58,-99.99,,,-99.99,,2013-07-16 16:21:00,
2013-07-16 10:32:00,68.0,53.0,29.81,ENE,60,4.0,-999.0,58,-99.99,,,-99.99,,2013-07-16 16:32:00,
2013-07-16 10:43:00,68.0,53.0,29.81,ESE,113,1.0,-999.0,58,-99.99,,,-99.99,,2013-07-16 16:43:00,
2013-07-16 10:52:00,70.0,53.0,29.80,SSE,162,2.0,-999.0,54,-99.99,,,-99.99,,2013-07-16 16:52:00,
2013-07-16 11:02:00,70.0,53.0,29.80,SSE,162,2.0,-999.0,54,-99.99,,,-99.99,,2013-07-16 17:02:00,
2013-07-16 11:12:00,71.0,52.0,29.80,SSE,162,2.0,-999.0,51,-99.99,,,-99.99,,2013-07-16 17:12:00,
2013-07-16 11:22:00,72.0,53.0,29.78,NE,52,1.0,-999.0,52,-99.99,,,-99.99,,2013-07-16 17:22:00,
2013-07-16 11:32:00,72.0,53.0,29.78,NE,52,1.0,-999.0,52,-99.99,,,-99.99,,2013-07-16 17:32:00,
2013-07-16 11:43:00,72.0,51.0,29.78,East,91,3.0,-999.0,48,-99.99,,,-99.99,,2013-07-16 17:43:00,
2013-07-16 11:53:00,71.0,52.0,29.78,ESE,112,2.0,-999.0,52,-99.99,,,-99.99,,2013-07-16 17:53:00,
2013-07-16 12:01:00,71.0,52.0,29.78,ESE,112,2.0,-999.0,52,-99.99,,,-99.99,,2013-07-16 18:01:00,
2013-07-16 12:11:00,74.0,52.0,29.77,ESE,110,3.0,-999.0,47,-99.99,,,-99.99,,2013-07-16 18:11:00,
2013-07-16 12:22:00,74.0,54.0,29.76,SE,136,4.0,-999.0,49,-99.99,,,-99.99,,2013-07-16 18:22:00,
2013-07-16 12:32:00,74.0,54.0,29.76,SE,136,4.0,-999.0,49,-99.99,,,-99.99,,2013-07-16 18:32:00,
2013-07-16 12:43:00,75.0,53.0,29.75,ENE,70,2.0,-999.0,47,-99.99,,,-99.99,,2013-07-16 18:43:00,
2013-07-16 12:52:00,75.0,53.0,29.75,ENE,70,2.0,-999.0,47,-99.99,,,-99.99,,2013-07-16 18:52:00,
2013-07-16 13:01:00,75.0,53.0,29.75,ENE,70,2.0,-999.0,47,-99.99,,,-99.99,,2013-07-16 19:01:00,
2013-07-16 13:11:00,76.0,51.0,29.75,ESE,104,1.0,-999.0,41,-99.99,,,-99.99,,2013-07-16 19:11:00,
2013-07-16 13:22:00,76.0,51.0,29.73,East,83,3.0,-999.0,42,-99.99,,,-99.99,,2013-07-16 19:22:00,
2013-07-16 13:32:00,76.0,51.0,29.73,East,83,3.0,-999.0,42,-99.99,,,-99.99,,2013-07-16 19:32:00,
2013-07-16 13:43:00,77.0,51.0,29.73,SSE,160,2.0,-999.0,40,-99.99,,,-99.99,,2013-07-16 19:43:00,
2013-07-16 13:52:00,77.0,50.0,29.74,SSW,208,2.0,-999.0,39,-99.99,,,-99.99,,2013-07-16 19:52:00,
2013-07-16 14:03:00,77.0,50.0,29.74,SSW,208,2.0,-999.0,39,-99.99,,,-99.99,,2013-07-16 20:03:00,
2013-07-16 14:11:00,76.0,50.0,29.75,SSW,200,2.0,-999.0,40,-99.99,,,-99.99,,2013-07-16 20:11:00,
2013-07-16 14:22:00,77.0,51.0,29.73,ENE,63,3.0,-999.0,40,-99.99,,,-99.99,,2013-07-16 20:22:00,
2013-07-16 14:32:00,77.0,51.0,29.73,ENE,63,3.0,-999.0,40,-99.99,,,-99.99,,2013-07-16 20:32:00,
2013-07-16 14:43:00,77.0,50.0,29.72,SSW,205,1.0,-999.0,39,-99.99,,,-99.99,,2013-07-16 20:43:00,
2013-07-16 15:01:00,79.0,52.0,29.72,SSW,205,1.0,-999.0,39,-99.99,,,-99.99,,2013-07-16 21:01:00,
2013-07-16 15:11:00,78.0,50.0,29.71,ENE,65,3.0,-999.0,38,-99.99,,,-99.99,,2013-07-16 21:11:00,
2013-07-16 15:22:00,79.0,50.0,29.70,ENE,76,2.0,-999.0,36,-99.99,,,-99.99,,2013-07-16 21:22:00,
2013-07-16 15:32:00,79.0,50.0,29.70,ENE,76,2.0,-999.0,36,-99.99,,,-99.99,,2013-07-16 21:32:00,
2013-07-16 15:43:00,80.0,50.0,29.69,NNE,20,1.0,-999.0,35,-99.99,,,-99.99,,2013-07-16 21:43:00,
2013-07-16 16:01:00,79.0,50.0,29.69,ENE,58,2.0,-999.0,36,-99.99,,,-99.99,,2013-07-16 22:01:00,
2013-07-16 16:11:00,80.0,49.0,29.68,NE,55,2.0,-999.0,34,-99.99,,,-99.99,,2013-07-16 22:11:00,
2013-07-16 16:22:00,82.0,48.0,29.67,ENE,62,2.0,-999.0,31,-99.99,,,-99.99,,2013-07-16 22:22:00,
2013-07-16 16:33:00,82.0,48.0,29.67,ENE,62,2.0,-999.0,31,-99.99,,,-99.99,,2013-07-16 22:33:00,
2013-07-16 16:43:00,80.0,48.0,29.67,NNE,33,1.0,-999.0,33,-99.99,,,-99.99,,2013-07-16 22:43:00,
2013-07-16 16:52:00,79.0,50.0,29.67,NNE,20,3.0,-999.0,36,-99.99,,,-99.99,,2013-07-16 22:52:00,
2013-07-16 17:01:00,79.0,50.0,29.67,NNE,20,3.0,-999.0,36,-99.99,,,-99.99,,2013-07-16 23:01:00,
2013-07-16 17:11:00,80.0,50.0,29.67,NNE,27,3.0,-999.0,35,-99.99,,,-99.99,,2013-07-16 23:11:00,
2013-07-16 17:22:00,79.0,50.0,29.67,North,0,5.0,-999.0,36,-99.99,,,-99.99,,2013-07-16 23:22:00,
2013-07-16 17:32:00,79.0,50.0,29.67,North,0,5.0,-999.0,36,-99.99,,,-99.99,,2013-07-16 23:32:00,
2013-07-16 17:43:00,79.0,49.0,29.68,North,359,3.0,-999.0,35,-99.99,,,-99.99,,2013-07-16 23:43:00,
2013-07-16 17:52:00,80.0,48.0,29.65,North,359,1.0,-999.0,33,-99.99,,,-99.99,,2013-07-16 23:52:00,
2013-07-16 18:01:00,80.0,48.0,29.65,North,359,1.0,-999.0,33,-99.99,,,-99.99,,2013-07-17 00:01:00,
2013-07-16 18:11:00,82.0,48.0,29.65,North,359,0.0,-999.0,31,-99.99,,,-99.99,,2013-07-17 00:11:00,
2013-07-16 18:22:00,82.0,48.0,29.65,North,359,0.0,-999.0,31,-99.99,,,-99.99,,2013-07-17 00:22:00,
2013-07-16 18:33:00,80.0,50.0,29.65,North,359,0.0,-999.0,35,-99.99,,,-99.99,,2013-07-17 00:33:00,
2013-07-16 18:42:00,81.0,49.0,29.65,North,359,1.0,-999.0,33,-99.99,,,-99.99,,2013-07-17 00:42:00,
2013-07-16 19:01:00,81.0,49.0,29.64,North,359,0.0,-999.0,33,-99.99,,,-99.99,,2013-07-17 01:01:00,
2013-07-16 19:11:00,79.0,50.0,29.64,North,359,0.0,-999.0,36,-99.99,,,-99.99,,2013-07-17 01:11:00,
2013-07-16 19:22:00,79.0,50.0,29.64,North,359,0.0,-999.0,36,-99.99,,,-99.99,,2013-07-17 01:22:00,
2013-07-16 19:32:00,79.0,50.0,29.65,North,359,0.0,-999.0,37,-99.99,,,-99.99,,2013-07-17 01:32:00,
2013-07-16 19:42:00,78.0,54.0,29.65,North,359,0.0,-999.0,44,-99.99,,,-99.99,,2013-07-17 01:42:00,
2013-07-16 19:52:00,78.0,54.0,29.65,North,359,0.0,-999.0,44,-99.99,,,-99.99,,2013-07-17 01:52:00,
2013-07-16 20:01:00,78.0,50.0,29.65,North,359,0.0,-999.0,37,-99.99,,,-99.99,,2013-07-17 02:01:00,
2013-07-16 20:11:00,78.0,50.0,29.65,North,359,0.0,-999.0,38,-99.99,,,-99.99,,2013-07-17 02:11:00,
2013-07-16 20:22:00,78.0,50.0,29.65,North,359,0.0,-999.0,38,-99.99,,,-99.99,,2013-07-17 02:22:00,
2013-07-16 20:32:00,78.0,51.0,29.66,North,359,0.0,-999.0,39,-99.99,,,-99.99,,2013-07-17 02:32:00,
2013-07-16 20:43:00,77.0,52.0,29.66,North,359,0.0,-999.0,42,-99.99,,,-99.99,,2013-07-17 02:43:00,
2013-07-16 20:53:00,77.0,52.0,29.66,North,359,0.0,-999.0,42,-99.99,,,-99.99,,2013-07-17 02:53:00,
2013-07-16 21:01:00,77.0,52.0,29.65,North,359,0.0,-999.0,42,-99.99,,,-99.99,,2013-07-17 03:01:00,
2013-07-16 21:11:00,76.0,52.0,29.65,North,359,0.0,-999.0,43,-99.99,,,-99.99,,2013-07-17 03:11:00,
2013-07-16 21:22:00,76.0,52.0,29.65,North,359,0.0,-999.0,43,-99.99,,,-99.99,,2013-07-17 03:22:00,
2013-07-16 21:32:00,76.0,52.0,29.67,North,359,0.0,-999.0,44,-99.99,,,-99.99,,2013-07-17 03:32:00,
2013-07-16 21:53:00,75.0,54.0,29.67,North,359,0.0,-999.0,48,-99.99,,,-99.99,,2013-07-17 03:53:00,
2013-07-16 22:01:00,74.0,57.0,29.68,North,359,0.0,-999.0,55,-99.99,,,-99.99,,2013-07-17 04:01:00,
2013-07-16 22:11:00,72.0,52.0,29.70,SE,124,4.0,-999.0,50,-99.99,,,-99.99,,2013-07-17 04:11:00,
2013-07-16 22:22:00,72.0,52.0,29.70,SE,124,4.0,-999.0,50,-99.99,,,-99.99,,2013-07-17 04:22:00,
2013-07-16 22:32:00,73.0,52.0,29.72,ESE,113,5.0,-999.0,47,-99.99,,,-99.99,,2013-07-17 04:32:00,
2013-07-16 22:53:00,72.0,50.0,29.72,SSE,158,3.0,-999.0,46,-99.99,,,-99.99,,2013-07-17 04:53:00,
2013-07-16 23:02:00,71.0,50.0,29.71,ESE,114,3.0,-999.0,47,-99.99,,,-99.99,,2013-07-17 05:02:00,
2013-07-16 23:11:00,71.0,50.0,29.71,ESE,113,2.0,-999.0,47,-99.99,,,-99.99,,2013-07-17 05:11:00,
2013-07-16 23:21:00,71.0,50.0,29.71,ESE,113,2.0,-999.0,47,-99.99,,,-99.99,,2013-07-17 05:21:00,
2013-07-16 23:32:00,71.0,49.0,29.72,ESE,118,0.0,-999.0,46,-99.99,,,-99.99,,2013-07-17 05:32:00,
2013-07-16 23:43:00,70.0,52.0,29.73,ESE,113,0.0,-999.0,53,-99.99,,,-99.99,,2013-07-17 05:43:00,
2013-07-16 23:52:00,70.0,52.0,29.73,ESE,113,0.0,-999.0,53,-99.99,,,-99.99,,2013-07-17 05:52:00,